User: anonymous   Login
Location: Augirein
(42.9320°N, 0.9181°E)
Time: 11:57:01
(UTC+00:00)
Language:

Cosmos 405 Rocket - Orbit

View from above orbital plane
View from above orbital plane
View from above satellite
View from above satellite

Ground track
Ground track

The orbit data is extracted from the following two-line orbital elements,

1  5118U 71028B   21261.02511149  .00001258  00000-0  63777-4 0  9998
2  5118  81.2580 170.6408 0047511 110.6007 250.0327 15.15154244739370
Epoch (UTC): 18 September 2021 00:36:09
Eccentricity: 0.0047511
inclination: 81.2580°
perigee height: 488 km
apogee height: 553 km
right ascension of ascending node: 170.6408°
argument of perigee: 110.6007°
revolutions per day: 15.15154244
mean anomaly at epoch: 250.0327°
orbit number at epoch: 73937

The dashed part of the orbit path shows where the satellite is in the earth's shadow,  

DLR